Location: Newark
(33.6333°S, 78.8500°W)
Time: 17:28:11
(UTC+00:00)

Tiros 1 - Pass Details

Date: 19 October 2019
Orbit: 630 x 664 km, 48.4° (Epoch: 18 November)

Event Time Altitude Azimuth Distance (km) Brightness Sun altitude
Rises 18:15:13 0° 311° (NW) 2,939 11.0 60.8°
Reaches altitude 10° 18:17:32 10° 311° (NW) 2,030 10.4 60.5°
Maximum altitude 18:22:13 87° 39° (NE) 646 8.5 59.9°
Drops below altitude 10° 18:26:55 10° 128° (SE) 2,032 9.5 59.2°
Sets 18:29:15 0° 128° (SE) 2,942 10.2 58.8°
